Probability
0 0 0 0 0 0 0 0 0 0 0 0 0 0 0 0 0 0 0 0 0 0 0 0 0 0 0 0 0 0 0 0 0 0 0 0 0 0
0 0 0 0 0 0 0 0 0 0 0 0 0 0 0 0 0 0 0 0 0 0 0 0 0 0 0 0 0 0 0 0 0 0 0 0 0 0
0 0 0 0 0 0 0 0 0 0 0 0 0 0 0 0 0 0 0 0 0 0 0 0 0 0 0 0 0 0 0 0 0 0 0 0 0 0
0 0 0 0 0 0 0 0 0 0 0 0 0 0 0 0 0 0 0 0 0 0 0 0 0 0 0 0 0 0 0 0 0 0 0 0 0 0
0 0 0 0 0 0 0 0 0 0 0 0 0 0 0 0 0 0 0 0 0 0 0 0 0 0 0 0 0 0 0 0 0 0 0 0 0 0
0 0 0 0 0 0 0 0 0 0 0 0 0 0 0 0 0 0 0 0 0 0 0 0 0 0 0 0 0 0 0 0 0 0 0 0 0 0
0 0 0 0 0 0 0 0 0 0 0 0 0 0 0 0 0 0 0 0 0 0 0 0 0 0 0 0 0 0 0 0 0 0 0 0 0 0
0 0 0 0 0 0 0 0 0 0 0 0 0 0 0 0 0 0 0 0 0 0 0 0 0 0 0 0 0 0 0 0 0 0 0 0 0 0
0 0 0 0 0 0 0 0 0 0 0 0 0 0 0 0 0 0 0 0 0 0 0 0 0 0 0 0 0 0 0 0 0 0 0 0 0 0
0 0 0 0 0 0 0 0 0 0 0 0 0 0 0 0 0 0 0 0 0 0 0 0 0 0 0 0 0 0 0 0 0 0 0 0 0 0
0 0 0 0 0 0 0 0 0 0 0 0 0 0 0 0 0 0 0 0 0 0 0 0 0 0 0 0 0 0 0 0 0 0 0 0 0 0
0 0 0 0 0 0 0 0 0 0 0 0 0 0 0 0 0 0 0 0 0 0 0 0 0 0 0 0 0 0 0 0 0 0 0 0 0 0
0 0 0 0 0 0 0 0 0 0 0 0 0 0 0 0 0 0 0 0 0 0 0 0 0 0 0 0 0 0 0 0 0 0 0 0 0 0
0 0 0 0 0 0 0 0 0 0 0 0 0 0 0 0 0 0 0 0 0 0 0 0 0 0 0 0 0 0 0 0 0 0 0 0 0 0
0 0 0 0 0 0 0 0 0 0 0 0 0 0 0 0 0 0 0 0 0 0 0 0 0 0 0 0 0 0 0 0 0 0 0 0 0 0
0 0 0 0 0 0 0 0 0 0 0 0 0 0 0 0 0 0 0 0 0 0 0 0 0 0 0 0 0 0 0 0 0 0 0 0 0 0
0 0 0 0 0 0 0 0 0 0 0 0 0 0 0 0 0 0 0 0 0 0 0 0 0 0 0 0 0 0 0 0 0 0 0 0 0 0
0 0 0 0 0 0 0 0 0 0 0 0 0 0 0 0 0 0 0 0 0 0 0 0 0 0 0 0 0 0 0 0 0 0 0 0 0 0
0 0 0 0 0 0 0 0 0 0 0 0 0 0 0 0 0 0 0 0 0 0 0 0 0 0 0 0 0 0 0 0 0 0 0 0 0 0
0 0 0 0 0 0 0 0 0 0 0 0 0 0 0 0 0 0 0 0 0 0 0 0 0 0 0 0 0 0 0 0 0 0 0 0 0 0
0 0 0 0 0 0 0 0 0 0 0 0 0 0 0 0 0 0 0 0 0 0 0 0 0 0 0 0 0 0 0 0 0 0 0 0 0 0
0 0 0 0 0 0 0 0 0 0 0 0 0 0 0 0 0 0 0 0 0 0 0 0 0 0 0 0 0 0 0 0 0 0 0 0 0 0
0 0 0 0 0 0 0 0 0 0 0 0 0 0 0 0 0 0 0 0 0 0 0 0 0 0 0 0 0 0 0 0 0 0 0 0 0 0
Wind_Speed
4 4 3 2 2 2 3 4 5 3 3 3 2 1 1 1 0 0 0 1 2 3 3 3 4 4 4 4 5 6 6 7 7 8 8 9 10 11
3 4 3 2 2 2 2 2 2 4 3 3 3 2 1 0 0 0 1 2 2 3 3 3 4 4 5 5 5 5 6 7 8 8 9 10 11 12
3 4 4 3 3 2 2 2 2 2 2 1 1 1 2 1 1 1 1 2 2 4 4 4 4 5 5 5 6 6 6 7 8 9 10 10 11 12
5 4 4 3 4 3 3 3 3 2 3 3 1 1 2 2 2 2 2 2 2 4 5 5 5 5 6 6 6 6 7 7 8 9 10 11 11 12
5 5 5 4 4 3 3 3 3 2 2 3 2 1 1 1 1 1 2 2 2 3 5 5 6 7 7 7 7 7 7 7 8 9 9 10 12 13
4 4 5 6 6 5 4 4 3 3 3 2 2 1 1 1 1 1 2 2 2 2 3 4 6 7 7 7 7 7 7 8 8 9 9 10 11 13
3 3 3 4 6 5 4 4 4 3 3 2 2 1 1 2 2 1 2 2 3 2 2 3 3 3 4 6 7 7 8 8 9 9 10 11 11 12
4 3 3 4 5 6 6 6 6 5 5 3 3 3 3 3 2 2 1 1 3 1 1 3 2 3 3 3 7 9 8 9 9 9 10 11 11 11
4 3 3 3 4 3 4 4 4 5 6 5 5 5 4 4 3 3 3 3 3 2 1 3 2 3 3 5 9 8 8 8 9 9 9 10 11 11
3 4 4 3 3 4 4 3 3 3 4 4 4 5 4 4 4 4 3 2 2 2 1 2 2 3 4 4 8 7 7 8 9 9 10 10 11 12
2 3 3 3 4 5 3 3 2 2 2 3 3 3 3 3 3 2 2 1 2 2 1 1 2 3 3 4 4 5 7 8 9 10 10 10 11 10
1 2 3 4 4 4 3 4 3 3 1 1 1 1 2 2 3 4 3 3 1 2 1 1 1 2 3 2 2 3 4 6 9 10 10 10 11 6
2 1 2 4 4 4 3 3 4 3 2 2 1 1 1 1 2 2 3 3 3 3 2 1 1 1 2 4 3 3 2 3 4 6 8 11 11 8
2 2 2 3 3 3 3 2 2 2 2 1 1 1 1 1 1 1 2 2 3 4 4 3 2 2 2 4 4 3 3 4 3 4 4 8 10 11
1 3 3 3 2 2 2 2 2 1 2 2 2 2 1 1 1 1 1 1 2 2 2 3 3 3 3 4 5 4 4 4 3 3 4 5 5 5
1 2 3 2 1 2 1 1 1 1 1 2 1 1 0 0 1 1 1 1 1 2 1 2 3 3 4 5 5 6 5 4 3 4 5 5 5 5
2 2 1 1 1 1 1 0 0 1 0 0 1 0 0 1 1 1 1 1 1 3 3 2 2 2 4 5 5 6 5 5 4 4 5 6 6 5
2 2 1 1 1 1 1 1 1 1 1 1 1 1 1 1 1 1 1 1 2 3 3 2 2 3 3 3 6 6 4 4 4 5 4 6 7 6
1 1 1 1 1 1 1 1 1 1 1 1 1 1 1 1 1 2 2 2 2 3 3 2 2 2 4 6 4 4 4 5 5 5 5 5 7 7
1 1 1 1 1 1 1 1 1 1 1 1 1 1 1 1 2 2 2 2 3 3 3 3 2 3 4 5 5 5 6 6 5 6 6 5 6 9
0 0 0 1 1 1 1 1 1 1 1 1 1 2 2 2 2 3 3 4 3 3 4 4 4 5 3 3 4 5 5 7 8 6 6 6 6 5
1 1 1 1 1 1 1 1 1 1 2 2 2 2 2 2 3 3 3 3 3 4 5 4 3 3 2 4 6 7 7 6 7 10 10 9 5 5
0 1 1 1 1 1 1 1 2 2 2 2 2 2 2 3 3 3 3 3 3 4 4 4 4 3 4 4 6 6 8 8 6 6 6 9 11 13
Wind_Direction
176 175 176 174 163 158 151 160 161 187 229 224 219 221 208 161 226 134 222 329 337 334 341 345 342 344 336 331 331 330 327 324 321 316 311 311 311 311
171 169 181 176 162 154 156 163 166 172 207 213 211 202 197 185 240 205 249 308 314 315 321 330 328 329 329 326 327 327 324 320 317 316 314 311 308 307
176 177 191 180 171 167 158 157 164 159 189 223 179 183 181 197 256 253 257 259 280 301 300 306 310 317 321 320 317 314 314 316 316 313 311 312 313 310
184 181 191 178 176 174 169 176 185 180 173 194 198 193 206 207 211 234 258 265 263 281 287 289 295 303 306 306 305 307 310 311 310 309 309 311 312 312
184 185 188 176 184 183 182 186 187 177 165 174 208 199 213 205 207 247 263 271 272 277 278 276 286 294 297 298 300 303 305 305 306 305 306 310 311 311
180 185 187 188 192 188 190 190 178 167 158 168 192 200 206 214 198 233 274 274 277 286 275 281 285 289 291 294 296 299 300 302 301 301 304 308 310 310
172 182 188 190 192 189 188 184 176 175 170 178 191 195 207 200 222 223 261 281 276 255 267 280 283 281 283 288 292 295 297 299 300 301 303 306 308 310
181 183 186 186 186 187 189 187 185 182 185 190 201 212 227 222 221 222 240 282 278 252 254 278 263 267 274 276 288 293 293 297 301 303 304 308 311 312
187 184 186 185 184 184 183 185 195 198 199 195 203 219 220 215 205 220 228 237 253 257 267 275 269 269 277 285 290 288 292 297 301 304 308 310 311 311
190 188 184 184 185 177 171 181 202 214 214 211 213 222 219 212 206 213 219 244 282 274 214 260 278 275 291 287 283 281 293 303 307 307 310 309 309 310
188 182 179 179 184 180 173 184 206 235 236 228 236 240 244 235 210 165 176 206 276 273 214 234 276 300 290 278 279 289 303 306 308 310 310 309 311 315
160 176 183 185 187 184 184 186 206 228 215 249 275 266 240 223 218 203 197 213 252 264 220 218 265 318 304 280 276 286 293 297 305 308 309 313 318 317
174 192 197 187 192 193 200 205 213 207 191 200 226 247 249 231 227 222 211 207 222 244 214 190 243 270 266 292 294 278 272 288 298 297 304 311 313 313
193 199 187 179 190 196 204 198 194 183 182 181 200 234 247 260 262 251 238 238 239 240 222 201 220 235 264 283 282 288 292 286 282 283 289 303 303 303
194 182 174 173 185 194 187 184 177 179 176 191 216 246 253 254 263 304 331 328 300 266 237 225 221 235 239 258 275 281 296 288 271 278 290 292 287 292
112 130 125 125 123 115 116 149 164 179 179 200 222 247 271 290 277 281 276 313 317 308 301 261 242 238 261 263 263 274 273 274 284 284 288 286 281 277
120 98 98 110 116 106 100 126 150 145 138 163 171 204 285 308 303 312 278 283 274 284 301 313 298 271 257 257 265 264 269 274 275 287 293 290 281 274
127 141 162 171 188 193 193 211 213 201 200 190 193 216 241 258 277 292 286 274 273 278 284 293 319 322 307 277 243 257 264 271 283 285 282 287 289 284
119 158 185 193 202 205 208 214 230 235 210 191 203 228 239 256 267 277 284 287 282 278 277 278 281 280 295 294 283 234 256 284 289 287 278 276 284 290
116 165 200 206 205 211 215 226 232 217 203 212 218 229 235 248 265 274 274 271 276 282 285 279 261 250 258 273 281 279 264 264 273 282 286 285 280 286
142 187 235 235 225 221 222 222 221 224 224 222 227 229 235 245 258 265 269 275 280 275 277 278 271 282 279 278 281 281 276 263 267 272 281 290 295 294
179 207 248 257 249 231 225 222 228 235 234 239 241 236 237 244 253 260 263 265 270 273 279 285 288 288 260 260 274 283 291 296 290 284 273 260 264 270
219 237 257 266 265 251 236 231 232 240 239 241 247 246 239 247 255 258 263 265 269 274 282 289 293 282 270 267 275 282 287 294 299 301 293 286 279 276